,,,PA_Meas_PMT16A,,PR_Meas_QMR101_102,,RH_Meas_QMH101,,SR_Meas_QMS101,,TA_Meas_QMH101,,GenWind,,GenWind,
date,time,status,PA,status,PR,status,RH,status,SR,status,TA,status,DirAvg,status,SpdAvg,
2012-06-26, 00:00:04,VALID,1001.43,VALID,0,VALID,70.986,VALID,0,VALID,24.4409,VALID,121,VALID,1.29258,
2012-06-26, 00:01:04,VALID,1001.43,VALID,0,VALID,71.253,VALID,0.104696,VALID,24.4214,VALID,131,VALID,1.16328,
2012-06-26, 00:02:04,VALID,1001.44,VALID,0,VALID,71.5048,VALID,0,VALID,24.3433,VALID,138,VALID,1.56445,
2012-06-26, 00:03:04,VALID,1001.42,VALID,0,VALID,71.9321,VALID,0,VALID,24.2653,VALID,127,VALID,1.51328,
2012-06-26, 00:04:04,VALID,1001.41,VALID,0,VALID,71.9397,VALID,0,VALID,24.1891,VALID,125,VALID,1.99922,
2012-06-26, 00:05:04,VALID,1001.4,VALID,0,VALID,72.1686,VALID,0,VALID,24.1677,VALID,127,VALID,1.88477,
2012-06-26, 00:06:04,VALID,1001.38,VALID,0,VALID,71.9244,VALID,0,VALID,24.1696,VALID,132,VALID,2.64141,
2012-06-26, 00:07:04,VALID,1001.39,VALID,0,VALID,71.9855,VALID,0,VALID,24.2086,VALID,130,VALID,2.08867,
2012-06-26, 00:08:04,VALID,1001.37,VALID,0,VALID,71.8024,VALID,0,VALID,24.2086,VALID,128,VALID,2.06289,
2012-06-26, 00:09:04,VALID,1001.37,VALID,0,VALID,71.9168,VALID,0,VALID,24.2281,VALID,124,VALID,1.65,
2012-06-26, 00:10:04,VALID,1001.39,VALID,0,VALID,72.2144,VALID,0,VALID,24.2086,VALID,146,VALID,1.39688,
2012-06-26, 00:11:04,VALID,1001.35,VALID,0,VALID,72.1381,VALID,0,VALID,24.15,VALID,144,VALID,1.30313,
2012-06-26, 00:12:04,VALID,1001.33,VALID,0,VALID,72.3517,VALID,0,VALID,24.1305,VALID,130,VALID,1.20117,
2012-06-26, 00:13:04,VALID,1001.33,VALID,0,VALID,72.1228,VALID,0,VALID,24.1305,VALID,128,VALID,1.65781,
2012-06-26, 00:14:04,VALID,1001.32,VALID,0,VALID,71.9168,VALID,0,VALID,24.1305,VALID,127,VALID,1.56133,
2012-06-26, 00:15:04,VALID,1001.29,VALID,0,VALID,72.2067,VALID,0,VALID,24.1696,VALID,133,VALID,1.10391,
2012-06-26, 00:16:04,VALID,1001.23,VALID,0,VALID,72.4661,VALID,0,VALID,24.111,VALID,140,VALID,0.728125,
2012-06-26, 00:17:04,VALID,1001.21,VALID,0,VALID,72.5729,VALID,0,VALID,24.0525,VALID,139,VALID,0.973437,
2012-06-26, 00:18:04,VALID,1001.22,VALID,0,VALID,72.5882,VALID,0,VALID,24.0525,VALID,140,VALID,1.27656,
2012-06-26, 00:19:04,VALID,1001.18,VALID,0,VALID,72.6416,VALID,0,VALID,24.0329,VALID,143,VALID,1.05352,
2012-06-26, 00:20:04,VALID,1001.22,VALID,0,VALID,72.84,VALID,0,VALID,24.0134,VALID,145,VALID,0.889063,
2012-06-26, 00:21:04,VALID,1001.2,VALID,0,VALID,72.8705,VALID,0,VALID,23.9939,VALID,140,VALID,1.06562,
2012-06-26, 00:22:04,VALID,1001.18,VALID,0,VALID,72.9544,VALID,0,VALID,23.9549,VALID,130,VALID,1.41758,
2012-06-26, 00:23:04,VALID,1001.16,VALID,0,VALID,72.9849,VALID,0,VALID,23.9159,VALID,133,VALID,1.24609,
2012-06-26, 00:24:04,VALID,1001.13,VALID,0,VALID,72.5043,VALID,0,VALID,23.9159,VALID,126,VALID,1.51328,
2012-06-26, 00:25:04,VALID,1001.12,VALID,0,VALID,72.1609,VALID,0,VALID,23.9549,VALID,133,VALID,1.60117,
2012-06-26, 00:26:04,VALID,1001.1,VALID,0,VALID,71.8329,VALID,0,VALID,23.9939,VALID,131,VALID,1.43477,
2012-06-26, 00:27:04,VALID,1001.1,VALID,0,VALID,71.2683,VALID,0,VALID,24.0525,VALID,140,VALID,1.32344,
2012-06-26, 00:28:04,VALID,1001.06,VALID,0,VALID,71.5201,VALID,0,VALID,24.072,VALID,138,VALID,0.800391,
2012-06-26, 00:29:04,VALID,1001.09,VALID,0,VALID,71.7032,VALID,0,VALID,24.0329,VALID,134,VALID,1.7,
2012-06-26, 00:30:04,VALID,1001.05,VALID,0,VALID,70.6579,VALID,0,VALID,24.0311,VALID,129,VALID,2.05742,
2012-06-26, 00:31:04,VALID,1001.04,VALID,0,VALID,70.8029,VALID,0,VALID,24.1305,VALID,133,VALID,1.30391,
2012-06-26, 00:32:04,VALID,1001.03,VALID,0,VALID,70.9936,VALID,0,VALID,24.15,VALID,144,VALID,0.923437,
2012-06-26, 00:33:04,VALID,1001.05,VALID,0,VALID,71.1462,VALID,0,VALID,24.111,VALID,148,VALID,0.586719,
2012-06-26, 00:34:04,VALID,1001.03,VALID,0,VALID,71.398,VALID,0,VALID,24.0525,VALID,151,VALID,0.928906,
2012-06-26, 00:35:04,VALID,1000.96,VALID,0,VALID,71.1767,VALID,0,VALID,24.0525,VALID,144,VALID,0.833203,
2012-06-26, 00:36:04,VALID,1000.96,VALID,0,VALID,71.4132,VALID,0,VALID,24.0525,VALID,140,VALID,0.403906,
2012-06-26, 00:37:04,VALID,1000.96,VALID,0,VALID,71.2683,VALID,0,VALID,24.0329,VALID,140,VALID,0.0773437,
2012-06-26, 00:38:04,VALID,1001,VALID,0,VALID,71.4514,VALID,0,VALID,24.0134,VALID,140,VALID,0.473828,
2012-06-26, 00:39:04,VALID,1000.96,VALID,0,VALID,71.5964,VALID,0,VALID,24.0134,VALID,140,VALID,0.465625,
2012-06-26, 00:40:04,VALID,1000.94,VALID,0,VALID,71.7108,VALID,0,VALID,23.9939,VALID,140,VALID,0.128125,
2012-06-26, 00:41:04,VALID,1000.99,VALID,0,VALID,72.5577,VALID,0,VALID,23.9354,VALID,155,VALID,0.484766,
2012-06-26, 00:42:04,VALID,1000.97,VALID,0,VALID,73.6411,VALID,0,VALID,23.875,VALID,199,VALID,0.583594,
2012-06-26, 00:43:04,VALID,1000.95,VALID,0,VALID,73.3893,VALID,0,VALID,23.8378,VALID,217,VALID,0.451953,
2012-06-26, 00:44:04,VALID,1000.91,VALID,0,VALID,72.7408,VALID,0,VALID,23.7793,VALID,217,VALID,0.654297,
2012-06-26, 00:45:04,VALID,1000.88,VALID,0,VALID,73.87,VALID,0,VALID,23.7988,VALID,230,VALID,0.6125,
2012-06-26, 00:46:04,VALID,1000.86,VALID,0,VALID,74.137,VALID,0,VALID,23.7189,VALID,232,VALID,0.764844,
2012-06-26, 00:47:04,VALID,1000.88,VALID,0,VALID,74.1523,VALID,0,VALID,23.7012,VALID,321,VALID,0.827344,
2012-06-26, 00:48:04,VALID,1000.93,VALID,0,VALID,73.9005,VALID,0,VALID,23.6622,VALID,295,VALID,0.0410156,
2012-06-26, 00:49:04,VALID,1000.91,VALID,0,VALID,74.6863,VALID,0,VALID,23.6036,VALID,295,VALID,0.518359,
2012-06-26, 00:50:04,VALID,1000.91,VALID,0,VALID,74.3506,VALID,0,VALID,23.5451,VALID,295,VALID,0.639063,
2012-06-26, 00:51:04,VALID,1000.92,VALID,0,VALID,75.0144,VALID,0,VALID,23.5256,VALID,295,VALID,0.597656,
2012-06-26, 00:52:04,VALID,1000.95,VALID,0,VALID,71.7032,VALID,0,VALID,23.5451,VALID,333,VALID,0.724609,
2012-06-26, 00:53:04,VALID,1000.93,VALID,0,VALID,75.1823,VALID,0,VALID,23.5433,VALID,56,VALID,0.471094,
2012-06-26, 00:54:04,VALID,1000.91,VALID,0,VALID,74.3125,VALID,0,VALID,23.389,VALID,56,VALID,0.153906,
2012-06-26, 00:55:04,VALID,1000.88,VALID,0,VALID,74.2057,VALID,0,VALID,23.4085,VALID,84,VALID,0.417578,
2012-06-26, 00:56:04,VALID,1000.88,VALID,0,VALID,74.2057,VALID,0,VALID,23.4884,VALID,110,VALID,1.50742,
2012-06-26, 00:57:04,VALID,1000.86,VALID,0,VALID,75.1746,VALID,0,VALID,23.3872,VALID,101,VALID,1.34336,
2012-06-26, 00:58:04,VALID,1000.84,VALID,0,VALID,77.5246,VALID,0,VALID,23.311,VALID,60,VALID,1.68281,
2012-06-26, 00:59:04,VALID,1000.87,VALID,0,VALID,79.5769,VALID,0,VALID,23.1354,VALID,69,VALID,1.70508,
2012-06-26, 01:00:04,VALID,1000.89,VALID,0,VALID,80.8969,VALID,0,VALID,22.9598,VALID,57,VALID,1.62031,
2012-06-26, 01:01:04,VALID,1000.91,VALID,0,VALID,81.5759,VALID,0,VALID,22.8427,VALID,47,VALID,1.88398,
2012-06-26, 01:02:04,VALID,1000.92,VALID,0,VALID,82.0413,VALID,0,VALID,22.7842,VALID,41,VALID,1.53477,
2012-06-26, 01:03:04,VALID,1000.94,VALID,0,VALID,82.6288,VALID,0,VALID,22.7062,VALID,43,VALID,1.36211,
2012-06-26, 01:04:04,VALID,1001,VALID,0,VALID,82.4915,VALID,0,VALID,22.6672,VALID,39,VALID,1.31602,
2012-06-26, 01:05:04,VALID,1000.97,VALID,0,VALID,82.5372,VALID,0,VALID,22.6477,VALID,39,VALID,1.63672,
2012-06-26, 01:06:04,VALID,1000.98,VALID,0,VALID,83.1857,VALID,0,VALID,22.6477,VALID,30,VALID,2.03047,
2012-06-26, 01:07:04,VALID,1000.92,VALID,0,VALID,83.5672,VALID,0,VALID,22.5892,VALID,18,VALID,1.94687,
2012-06-26, 01:08:04,VALID,1000.92,VALID,0,VALID,83.3383,VALID,0,VALID,22.5111,VALID,8,VALID,1.31211,
2012-06-26, 01:09:04,VALID,1000.94,VALID,0,VALID,82.3617,VALID,0,VALID,22.4526,VALID,7,VALID,0.689844,
2012-06-26, 01:10:04,VALID,1000.93,VALID,0,VALID,82.6288,VALID,0,VALID,22.4721,VALID,16,VALID,0.646094,
2012-06-26, 01:11:04,VALID,1000.9,VALID,0,VALID,83.2926,VALID,0,VALID,22.4526,VALID,41,VALID,1.05273,
2012-06-26, 01:12:04,VALID,1000.91,VALID,0,VALID,83.8419,VALID,0,VALID,22.3729,VALID,43,VALID,1.47539,
2012-06-26, 01:13:04,VALID,1000.9,VALID,0,VALID,84.4599,VALID,0,VALID,22.3161,VALID,67,VALID,1.77266,
2012-06-26, 01:14:04,VALID,1000.93,VALID,0,VALID,84.9253,VALID,0,VALID,22.2771,VALID,72,VALID,1.76367,
2012-06-26, 01:15:04,VALID,1000.91,VALID,0,VALID,87.3134,VALID,0,VALID,22.2186,VALID,77,VALID,2.01953,
2012-06-26, 01:16:04,VALID,1000.86,VALID,0,VALID,88.3739,VALID,0,VALID,22.1405,VALID,62,VALID,1.95273,
2012-06-26, 01:17:04,VALID,1000.86,VALID,0,VALID,88.5723,VALID,0,VALID,22.082,VALID,65,VALID,1.46758,
2012-06-26, 01:18:04,VALID,1000.82,VALID,0,VALID,88.702,VALID,0,VALID,22.043,VALID,54,VALID,1.17656,
2012-06-26, 01:19:04,VALID,1000.84,VALID,0,VALID,88.9766,VALID,0.104696,VALID,21.9828,VALID,64,VALID,1.04844,
2012-06-26, 01:20:04,VALID,1000.83,VALID,0,VALID,87.7025,VALID,0,VALID,21.9845,VALID,45,VALID,1.30195,
2012-06-26, 01:21:04,VALID,1000.85,VALID,0,VALID,87.5575,VALID,0,VALID,22.0235,VALID,44,VALID,0.803125,
2012-06-26, 01:22:04,VALID,1000.81,VALID,0,VALID,87.6567,VALID,0,VALID,22.0235,VALID,44,VALID,0.65,
2012-06-26, 01:23:04,VALID,1000.79,VALID,0,VALID,87.672,VALID,0,VALID,22.0023,VALID,44,VALID,0.85625,
2012-06-26, 01:24:04,VALID,1000.83,VALID,0,VALID,87.878,VALID,0,VALID,21.9845,VALID,23,VALID,0.757813,
2012-06-26, 01:25:04,VALID,1000.83,VALID,0,VALID,88.1068,VALID,0,VALID,21.9455,VALID,21,VALID,0.9875,
2012-06-26, 01:26:04,VALID,1000.81,VALID,0,VALID,88.206,VALID,0,VALID,21.8853,VALID,14,VALID,0.706641,
2012-06-26, 01:27:04,VALID,1000.82,VALID,0,VALID,88.4807,VALID,0,VALID,21.8675,VALID,8,VALID,0.778516,
2012-06-26, 01:28:04,VALID,1000.81,VALID,0,VALID,88.9995,VALID,0,VALID,21.8658,VALID,322,VALID,0.680859,
2012-06-26, 01:29:04,VALID,1000.8,VALID,0,VALID,89.2971,VALID,0,VALID,21.8675,VALID,322,VALID,0.750391,
2012-06-26, 01:30:04,VALID,1000.82,VALID,0,VALID,89.1521,VALID,0,VALID,21.848,VALID,322,VALID,0.656641,
2012-06-26, 01:31:04,VALID,1000.81,VALID,0,VALID,88.8698,VALID,0,VALID,21.8268,VALID,322,VALID,0.545703,
2012-06-26, 01:32:04,VALID,1000.83,VALID,0,VALID,88.5723,VALID,0,VALID,21.848,VALID,336,VALID,0.723828,
2012-06-26, 01:33:04,VALID,1000.85,VALID,0,VALID,88.7096,VALID,0,VALID,21.8268,VALID,336,VALID,0.510156,
2012-06-26, 01:34:04,VALID,1000.89,VALID,0,VALID,88.7706,VALID,0,VALID,21.8675,VALID,336,VALID,0.438672,
2012-06-26, 01:35:04,VALID,1000.9,VALID,0,VALID,88.9232,VALID,0,VALID,21.8675,VALID,336,VALID,0.507031,
2012-06-26, 01:36:04,VALID,1000.97,VALID,0,VALID,88.0916,VALID,0,VALID,21.9065,VALID,336,VALID,0.755078,
2012-06-26, 01:37:04,VALID,1000.95,VALID,0,VALID,87.6949,VALID,0,VALID,21.965,VALID,356,VALID,0.864453,
2012-06-26, 01:38:04,VALID,1000.95,VALID,0,VALID,87.3668,VALID,0.104696,VALID,22.004,VALID,356,VALID,0.65,
2012-06-26, 01:39:04,VALID,1000.96,VALID,0,VALID,87.0692,VALID,0.104696,VALID,22.0235,VALID,19,VALID,0.863281,
2012-06-26, 01:40:04,VALID,1000.96,VALID,0,VALID,86.8937,VALID,0,VALID,21.9455,VALID,22,VALID,0.544531,
2012-06-26, 01:41:04,VALID,1000.95,VALID,0,VALID,86.8937,VALID,0,VALID,21.9243,VALID,22,VALID,0.783594,
2012-06-26, 01:42:04,VALID,1000.88,VALID,0,VALID,86.8556,VALID,0.104696,VALID,21.8853,VALID,28,VALID,1.26484,
2012-06-26, 01:43:04,VALID,1000.87,VALID,0,VALID,87.115,VALID,0,VALID,21.8675,VALID,34,VALID,0.955469,
2012-06-26, 01:44:04,VALID,1000.8,VALID,0,VALID,87.5499,VALID,0,VALID,21.8073,VALID,12,VALID,0.703516,
2012-06-26, 01:45:04,VALID,1000.84,VALID,0,VALID,87.7254,VALID,0,VALID,21.8285,VALID,291,VALID,1.06797,
2012-06-26, 01:46:04,VALID,1000.84,VALID,0,VALID,86.848,VALID,0,VALID,21.8675,VALID,291,VALID,0.353516,
2012-06-26, 01:47:04,VALID,1000.86,VALID,0,VALID,86.5351,VALID,0,VALID,21.9455,VALID,291,VALID,0.157031,
2012-06-26, 01:48:04,VALID,1000.83,VALID,0,VALID,85.5967,VALID,0,VALID,21.9845,VALID,291,VALID,0.432813,
2012-06-26, 01:49:04,VALID,1000.84,VALID,0,VALID,84.6201,VALID,0,VALID,22.082,VALID,302,VALID,0.471484,
2012-06-26, 01:50:04,VALID,1000.8,VALID,0,VALID,83.8724,VALID,0,VALID,22.2381,VALID,1,VALID,0.891406,
2012-06-26, 01:51:04,VALID,1000.8,VALID,0,VALID,83.6435,VALID,0,VALID,22.3356,VALID,40,VALID,0.910547,
2012-06-26, 01:52:04,VALID,1000.81,VALID,0,VALID,83.6817,VALID,0,VALID,22.3746,VALID,48,VALID,1.00742,
2012-06-26, 01:53:04,VALID,1000.82,VALID,0,VALID,83.7503,VALID,0,VALID,22.3941,VALID,52,VALID,1.26602,
2012-06-26, 01:54:04,VALID,1000.8,VALID,0,VALID,83.6893,VALID,0,VALID,22.3941,VALID,59,VALID,1.28711,
2012-06-26, 01:55:04,VALID,1000.81,VALID,0,VALID,84.1242,VALID,0,VALID,22.2966,VALID,60,VALID,1.48164,
2012-06-26, 01:56:04,VALID,1000.79,VALID,0,VALID,85.4212,VALID,0,VALID,22.2202,VALID,69,VALID,1.27305,
2012-06-26, 01:57:04,VALID,1000.8,VALID,0,VALID,86.2223,VALID,0,VALID,22.1405,VALID,71,VALID,1.14883,
2012-06-26, 01:58:04,VALID,1000.83,VALID,0,VALID,87.0692,VALID,0,VALID,22.0625,VALID,70,VALID,1.23242,
2012-06-26, 01:59:04,VALID,1000.8,VALID,0,VALID,87.6567,VALID,0,VALID,22.004,VALID,73,VALID,1.17031,
2012-06-26, 02:00:04,VALID,1000.8,VALID,0,VALID,87.9161,VALID,0,VALID,21.965,VALID,66,VALID,1.18516,
2012-06-26, 02:01:04,VALID,1000.79,VALID,0,VALID,87.9848,VALID,0,VALID,21.9455,VALID,60,VALID,1.11367,
2012-06-26, 02:02:04,VALID,1000.76,VALID,0,VALID,87.8093,VALID,0,VALID,21.926,VALID,56,VALID,1.16523,
2012-06-26, 02:03:04,VALID,1000.8,VALID,0,VALID,88.0229,VALID,0,VALID,21.9862,VALID,42,VALID,0.862891,
2012-06-26, 02:04:04,VALID,1000.77,VALID,0,VALID,88.206,VALID,0,VALID,21.9065,VALID,42,VALID,0.602734,
2012-06-26, 02:05:04,VALID,1000.75,VALID,0,VALID,88.2442,VALID,0,VALID,21.8675,VALID,41,VALID,1.00586,
2012-06-26, 02:06:04,VALID,1000.77,VALID,0,VALID,88.2442,VALID,0,VALID,21.8285,VALID,30,VALID,1.1582,
2012-06-26, 02:07:04,VALID,1000.77,VALID,0,VALID,88.2823,VALID,0,VALID,21.77,VALID,29,VALID,1.24609,
2012-06-26, 02:08:04,VALID,1000.78,VALID,0,VALID,88.9843,VALID,0,VALID,21.7505,VALID,34,VALID,1.3543,
2012-06-26, 02:09:04,VALID,1000.78,VALID,0,VALID,89.648,VALID,0,VALID,21.692,VALID,35,VALID,1.4293,
2012-06-26, 02:10:04,VALID,1000.77,VALID,0,VALID,90.1897,VALID,0,VALID,21.6725,VALID,33,VALID,1.79531,
2012-06-26, 02:11:04,VALID,1000.75,VALID,0,VALID,90.6246,VALID,0,VALID,21.653,VALID,33,VALID,1.56641,
2012-06-26, 02:12:04,VALID,1000.75,VALID,0,VALID,90.9985,VALID,0,VALID,21.6335,VALID,33,VALID,1.70742,
2012-06-26, 02:13:04,VALID,1000.78,VALID,0,VALID,91.2731,VALID,0,VALID,21.614,VALID,35,VALID,1.31211,
2012-06-26, 02:14:04,VALID,1000.77,VALID,0,VALID,91.3876,VALID,0,VALID,21.5945,VALID,29,VALID,1.13398,
2012-06-26, 02:15:04,VALID,1000.77,VALID,0,VALID,91.3037,VALID,0,VALID,21.575,VALID,23,VALID,0.948438,
2012-06-26, 02:16:04,VALID,1000.73,VALID,0,VALID,91.3647,VALID,0,VALID,21.5571,VALID,22,VALID,0.942578,
2012-06-26, 02:17:04,VALID,1000.73,VALID,0,VALID,91.502,VALID,0,VALID,21.536,VALID,8,VALID,1.0168,
2012-06-26, 02:18:04,VALID,1000.72,VALID,0,VALID,91.5326,VALID,0,VALID,21.5165,VALID,8,VALID,1.21328,
2012-06-26, 02:19:04,VALID,1000.76,VALID,0,VALID,91.5097,VALID,0,VALID,21.536,VALID,8,VALID,1.0293,
2012-06-26, 02:20:04,VALID,1000.72,VALID,0,VALID,91.4715,VALID,0,VALID,21.5555,VALID,8,VALID,0.508203,
2012-06-26, 02:21:04,VALID,1000.76,VALID,0,VALID,91.2426,VALID,0,VALID,21.614,VALID,8,VALID,0.45625,
2012-06-26, 02:22:04,VALID,1000.75,VALID,0,VALID,90.968,VALID,0,VALID,21.6335,VALID,8,VALID,0.840234,
2012-06-26, 02:23:04,VALID,1000.74,VALID,0,VALID,90.5865,VALID,0,VALID,21.6725,VALID,16,VALID,0.969531,
2012-06-26, 02:24:04,VALID,1000.74,VALID,0,VALID,90.2126,VALID,0,VALID,21.692,VALID,28,VALID,1.06094,
2012-06-26, 02:25:04,VALID,1000.72,VALID,0,VALID,89.999,VALID,0,VALID,21.692,VALID,31,VALID,1.35312,
2012-06-26, 02:26:04,VALID,1000.75,VALID,0,VALID,89.7167,VALID,0,VALID,21.7115,VALID,31,VALID,1.10117,
2012-06-26, 02:27:04,VALID,1000.71,VALID,0,VALID,89.6175,VALID,0,VALID,21.731,VALID,31,VALID,1.11172,
2012-06-26, 02:28:04,VALID,1000.71,VALID,0,VALID,89.5946,VALID,0,VALID,21.7895,VALID,31,VALID,1.03594,
2012-06-26, 02:29:04,VALID,1000.73,VALID,0,VALID,89.4726,VALID,0,VALID,21.848,VALID,30,VALID,0.778125,
2012-06-26, 02:30:04,VALID,1000.76,VALID,0,VALID,89.2666,VALID,0,VALID,21.8675,VALID,11,VALID,0.651953,
2012-06-26, 02:31:04,VALID,1000.76,VALID,0,VALID,89.1216,VALID,0,VALID,21.887,VALID,11,VALID,0.861328,
2012-06-26, 02:32:04,VALID,1000.76,VALID,0,VALID,88.7554,VALID,0,VALID,21.9472,VALID,11,VALID,0.750781,
2012-06-26, 02:33:04,VALID,1000.78,VALID,0,VALID,88.3357,VALID,0,VALID,22.004,VALID,11,VALID,0.885938,
2012-06-26, 02:34:04,VALID,1000.83,VALID,0,VALID,87.878,VALID,0,VALID,22.043,VALID,7,VALID,0.939453,
2012-06-26, 02:35:04,VALID,1000.82,VALID,0,VALID,87.4126,VALID,0,VALID,22.1015,VALID,3,VALID,1.04414,
2012-06-26, 02:36:04,VALID,1000.83,VALID,0,VALID,86.9853,VALID,0,VALID,22.16,VALID,8,VALID,1.03516,
2012-06-26, 02:37:04,VALID,1000.83,VALID,0,VALID,86.6954,VALID,0,VALID,22.199,VALID,8,VALID,1.02148,
2012-06-26, 02:38:04,VALID,1000.84,VALID,0,VALID,86.5504,VALID,0,VALID,22.2576,VALID,8,VALID,0.932031,
2012-06-26, 02:39:04,VALID,1000.89,VALID,0,VALID,86.4436,VALID,0,VALID,22.2771,VALID,8,VALID,0.727344,
2012-06-26, 02:40:04,VALID,1000.88,VALID,0,VALID,86.3826,VALID,0,VALID,22.2966,VALID,8,VALID,0.729688,
2012-06-26, 02:41:04,VALID,1000.91,VALID,0,VALID,86.0545,VALID,0,VALID,22.3178,VALID,21,VALID,0.993359,
2012-06-26, 02:42:04,VALID,1000.87,VALID,0,VALID,85.612,VALID,0,VALID,22.3161,VALID,23,VALID,1.02617,
2012-06-26, 02:43:04,VALID,1000.86,VALID,0,VALID,85.3755,VALID,0,VALID,22.3356,VALID,23,VALID,0.847656,
2012-06-26, 02:44:04,VALID,1000.86,VALID,0,VALID,85.6883,VALID,0,VALID,22.3551,VALID,23,VALID,0.7125,
2012-06-26, 02:45:04,VALID,1000.84,VALID,0,VALID,85.3068,VALID,0,VALID,22.3551,VALID,23,VALID,0.777344,
2012-06-26, 02:46:04,VALID,1000.85,VALID,0,VALID,85.055,VALID,0,VALID,22.3746,VALID,43,VALID,1.11055,
2012-06-26, 02:47:04,VALID,1000.82,VALID,0,VALID,84.5972,VALID,0,VALID,22.4136,VALID,43,VALID,1.14297,
2012-06-26, 02:48:04,VALID,1000.84,VALID,0,VALID,84.2539,VALID,0,VALID,22.4916,VALID,43,VALID,1.1125,
2012-06-26, 02:49:04,VALID,1000.83,VALID,0,VALID,84.3912,VALID,0,VALID,22.5714,VALID,43,VALID,1.25859,
2012-06-26, 02:50:04,VALID,1000.82,VALID,0,VALID,84.6659,VALID,0,VALID,22.6104,VALID,52,VALID,1.06953,
2012-06-26, 02:51:04,VALID,1000.83,VALID,0,VALID,85.3449,VALID,0,VALID,22.5909,VALID,69,VALID,1.15195,
2012-06-26, 02:52:04,VALID,1000.81,VALID,0,VALID,85.9324,VALID,0,VALID,22.5519,VALID,77,VALID,0.879687,
2012-06-26, 02:53:04,VALID,1000.77,VALID,0,VALID,86.3444,VALID,0,VALID,22.5323,VALID,77,VALID,0.574219,
2012-06-26, 02:54:04,VALID,1000.78,VALID,0,VALID,86.8022,VALID,0,VALID,22.4738,VALID,75,VALID,0.391406,
2012-06-26, 02:55:04,VALID,1000.81,VALID,0,VALID,87.2066,VALID,0,VALID,22.4348,VALID,93,VALID,0.553906,
2012-06-26, 02:56:04,VALID,1000.81,VALID,0,VALID,87.2447,VALID,0,VALID,22.4348,VALID,132,VALID,0.610547,
2012-06-26, 02:57:04,VALID,1000.77,VALID,0,VALID,85.4594,VALID,0,VALID,22.5714,VALID,121,VALID,1.46719,
2012-06-26, 02:58:04,VALID,1000.77,VALID,0,VALID,83.8419,VALID,0,VALID,22.786,VALID,115,VALID,1.4707,
2012-06-26, 02:59:04,VALID,1000.77,VALID,0,VALID,83.3002,VALID,0,VALID,23.0006,VALID,109,VALID,1.26172,
2012-06-26, 03:00:04,VALID,1000.79,VALID,0,VALID,83.0103,VALID,0,VALID,23.0786,VALID,104,VALID,1.39688,
2012-06-26, 03:01:04,VALID,1000.79,VALID,0,VALID,82.0489,VALID,0,VALID,23.1957,VALID,119,VALID,1.6,
2012-06-26, 03:02:04,VALID,1000.78,VALID,0,VALID,78.1731,VALID,0,VALID,23.311,VALID,123,VALID,1.98711,
2012-06-26, 03:03:04,VALID,1000.77,VALID,0,VALID,76.2123,VALID,0,VALID,23.5079,VALID,137,VALID,1.77773,
2012-06-26, 03:04:04,VALID,1000.81,VALID,0,VALID,75.0373,VALID,0,VALID,23.7402,VALID,131,VALID,1.70039,
2012-06-26, 03:05:04,VALID,1000.82,VALID,0,VALID,74.1523,VALID,0,VALID,23.8768,VALID,137,VALID,1.82422,
2012-06-26, 03:06:04,VALID,1000.85,VALID,0,VALID,73.4046,VALID,0,VALID,24.0153,VALID,139,VALID,1.55313,
2012-06-26, 03:07:04,VALID,1000.84,VALID,0,VALID,72.9849,VALID,0,VALID,24.072,VALID,138,VALID,1.63359,
2012-06-26, 03:08:04,VALID,1000.85,VALID,0,VALID,72.7332,VALID,0,VALID,24.1305,VALID,142,VALID,1.80391,
2012-06-26, 03:09:04,VALID,1000.79,VALID,0,VALID,72.9697,VALID,0,VALID,24.15,VALID,130,VALID,1.56445,
2012-06-26, 03:10:04,VALID,1000.79,VALID,0,VALID,73.1375,VALID,0,VALID,24.1714,VALID,125,VALID,1.97187,
2012-06-26, 03:11:04,VALID,1000.79,VALID,0,VALID,72.9621,VALID,0,VALID,24.1891,VALID,129,VALID,1.9832,
2012-06-26, 03:12:04,VALID,1000.79,VALID,0,VALID,73.3206,VALID,0,VALID,24.1696,VALID,132,VALID,1.61719,
2012-06-26, 03:13:04,VALID,1000.79,VALID,0,VALID,73.3588,VALID,0,VALID,24.1909,VALID,134,VALID,1.74844,
2012-06-26, 03:14:04,VALID,1000.77,VALID,0,VALID,73.7403,VALID,0,VALID,24.111,VALID,131,VALID,1.60352,
2012-06-26, 03:15:04,VALID,1000.77,VALID,0,VALID,74.1828,VALID,0,VALID,24.111,VALID,128,VALID,1.81055,
2012-06-26, 03:16:04,VALID,1000.77,VALID,0,VALID,74.5109,VALID,0,VALID,24.111,VALID,135,VALID,1.27305,
2012-06-26, 03:17:04,VALID,1000.76,VALID,0,VALID,74.5032,VALID,0,VALID,24.111,VALID,134,VALID,1.89336,
2012-06-26, 03:18:04,VALID,1000.76,VALID,0,VALID,74.6101,VALID,0,VALID,24.1324,VALID,123,VALID,1.52578,
2012-06-26, 03:19:04,VALID,1000.75,VALID,0,VALID,74.8161,VALID,0,VALID,24.0915,VALID,129,VALID,1.62539,
2012-06-26, 03:20:04,VALID,1000.77,VALID,0,VALID,75.0221,VALID,0,VALID,24.1324,VALID,125,VALID,1.30625,
2012-06-26, 03:21:04,VALID,1000.79,VALID,0,VALID,75.0755,VALID,0,VALID,24.0933,VALID,123,VALID,1.12734,
2012-06-26, 03:22:04,VALID,1000.79,VALID,0,VALID,74.8847,VALID,0,VALID,24.0525,VALID,119,VALID,1.22383,
2012-06-26, 03:23:04,VALID,1000.83,VALID,0,VALID,75.1746,VALID,0,VALID,24.0738,VALID,117,VALID,0.876562,
2012-06-26, 03:24:04,VALID,1000.86,VALID,0,VALID,75.1746,VALID,0,VALID,24.0543,VALID,111,VALID,0.767969,
2012-06-26, 03:25:04,VALID,1000.86,VALID,0,VALID,75.2586,VALID,0,VALID,24.0348,VALID,121,VALID,1.08438,
2012-06-26, 03:26:04,VALID,1000.83,VALID,0,VALID,75.3959,VALID,0,VALID,24.0134,VALID,125,VALID,0.751562,
2012-06-26, 03:27:04,VALID,1000.8,VALID,0,VALID,75.4951,VALID,0,VALID,24.0134,VALID,119,VALID,1.36602,
2012-06-26, 03:28:04,VALID,1000.78,VALID,0,VALID,75.5561,VALID,0,VALID,24.0738,VALID,135,VALID,2.50312,
2012-06-26, 03:29:04,VALID,1000.74,VALID,0,VALID,75.724,VALID,0,VALID,24.111,VALID,126,VALID,2.14336,
2012-06-26, 03:30:04,VALID,1000.71,VALID,0,VALID,75.518,VALID,0,VALID,24.15,VALID,124,VALID,2.32266,
2012-06-26, 03:31:04,VALID,1000.73,VALID,0,VALID,75.5866,VALID,0,VALID,24.15,VALID,130,VALID,1.98438,
2012-06-26, 03:32:04,VALID,1000.7,VALID,0,VALID,75.9452,VALID,0,VALID,24.1519,VALID,123,VALID,1.45273,
2012-06-26, 03:33:04,VALID,1000.71,VALID,0,VALID,76.4335,VALID,0,VALID,24.072,VALID,117,VALID,1.51289,
2012-06-26, 03:34:04,VALID,1000.7,VALID,0,VALID,75.9758,VALID,0,VALID,24.072,VALID,128,VALID,2.32383,
2012-06-26, 03:35:04,VALID,1000.74,VALID,0,VALID,76.0215,VALID,0,VALID,24.15,VALID,131,VALID,2.02344,
2012-06-26, 03:36:04,VALID,1000.74,VALID,0,VALID,75.9223,VALID,0,VALID,24.1891,VALID,138,VALID,1.99219,
2012-06-26, 03:37:04,VALID,1000.78,VALID,0,VALID,76.1283,VALID,0,VALID,24.2086,VALID,127,VALID,2.01875,
2012-06-26, 03:38:04,VALID,1000.8,VALID,0,VALID,76.2046,VALID,0,VALID,24.1696,VALID,129,VALID,1.94609,
2012-06-26, 03:39:04,VALID,1000.78,VALID,0,VALID,76.1283,VALID,0,VALID,24.2281,VALID,131,VALID,2.47305,
2012-06-26, 03:40:04,VALID,1000.84,VALID,0,VALID,76.2199,VALID,0,VALID,24.2866,VALID,132,VALID,1.78164,
2012-06-26, 03:41:04,VALID,1000.82,VALID,0,VALID,76.1741,VALID,0,VALID,24.2866,VALID,126,VALID,1.23711,
2012-06-26, 03:42:04,VALID,1000.81,VALID,0,VALID,75.6401,VALID,0,VALID,24.2671,VALID,153,VALID,1.66406,
2012-06-26, 03:43:04,VALID,1000.78,VALID,0,VALID,75.8918,VALID,0,VALID,24.3062,VALID,141,VALID,1.47383,
2012-06-26, 03:44:04,VALID,1000.76,VALID,0,VALID,75.1518,VALID,0,VALID,24.2866,VALID,127,VALID,2.09609,
2012-06-26, 03:45:04,VALID,1000.74,VALID,0,VALID,74.1523,VALID,0,VALID,24.3257,VALID,134,VALID,2.15078,
2012-06-26, 03:46:04,VALID,1000.74,VALID,0,VALID,73.6487,VALID,0,VALID,24.4623,VALID,147,VALID,2.00469,
2012-06-26, 03:47:04,VALID,1000.74,VALID,0,VALID,72.5119,VALID,0,VALID,24.5989,VALID,143,VALID,2.1457,